Location: Buckenweiler
(49.0667°N, 10.2500°E)
Time: 19:19:47
(UTC+00:00)

Cosmos 468 Rocket - Pass Details

Date: 18 January 2026
Orbit: 740 x 774 km, 74.0° (Epoch: 15 February)

Event Time Altitude Azimuth Distance (km) Brightness Sun altitude
Exits shadow 05:33:22 - 338° (NNW) 2,580 6.4 -14.7°
Reaches altitude 10° 05:34:10 10° 339° (NNW) 2,268 6.1 -14.6°
Maximum altitude 05:39:18 77° 66° (ENE) 773 4.1 -13.8°
Drops below altitude 10° 05:44:27 10° 152° (SSE) 2,270 7.1 -13.0°
Sets 05:46:49 0° 154° (SSE) 3,196 7.9 -12.6°
